Avalon, Australia

6:56 PM AEST on June 26, 2017 (GMT +1000)
Avalon

Weather History for YMAV - June, 2013

Change the Weather History Date:

Sunday, June 30, 2013

  Actual Average Record
Temperature  
Mean Temperature 51 °F -  
Max Temperature 64 °F - - ()
Min Temperature 38 °F - - ()
Degree Days  
Heating Degree Days 14    
Growing Degree Days 1 (Base 50)    
Moisture  
Dew Point 47 °F    
Average Humidity 87    
Maximum Humidity 100    
Minimum Humidity 53    
Precipitation  
Precipitation 0.01 in - - ()
Sea Level Pressure  
Sea Level Pressure 30.28 in    
Wind  
Wind Speed 7 mph ()    
Max Wind Speed 16 mph    
Max Gust Speed -    
Visibility 6.0 miles    
Events      
T = Trace of Precipitation, MM = Missing Value Source: Averaged Metar Reports

Daily Weather History Graph

Daily Weather History Graph

Search for Another Location

Airport or City:

Trip Planner

Search our weather history database for the weather conditions in past years. The results will help you decide how hot, cold, wet, or windy it might be!

Date:

Astronomy

Jun. 30, 2013 Rise Set
Actual Time 7:39 AM AEST 5:12 PM AEST
Civil Twilight 7:09 AM AEST 5:41 PM AEST
Nautical Twilight 6:36 AM AEST 6:14 PM AEST
Astronomical Twilight 6:04 AM AEST 6:46 PM AEST
Moon No Moon Rise 11:50 AM AEST (6/30)
Length of Visible Light 10h 32m
Length of Day
9h 33m
Waning Gibbous, 51% of the Moon is Illuminated
Jun 30
Waning Gibbous
Jun 30
Last Quarter
Jul 8
New
Jul 16
First Quarter
Jul 23
Full

Hourly Weather History & Observations

Time (AEST) Temp. Windchill Dew Point Humidity Pressure Visibility Wind Dir Wind Speed Gust Speed Precip Events Conditions
12:00 AM 43 °F - 42 °F 94% 30.34 in - NNW 8.1 mph - -  
12:00 AM 42.8 °F 38.0 °F 42.8 °F 100% 30.33 in 6.2 mi NNW 8.1 mph - N/A   Unknown
12:30 AM 44.6 °F 41.4 °F 42.8 °F 93% 30.33 in 6.2 mi North 5.8 mph - N/A   Unknown
1:00 AM 39.2 °F 35.9 °F 37.4 °F 93% 30.33 in 6.2 mi East 4.6 mph - N/A   Unknown
1:30 AM 41.0 °F - 39.2 °F 93% 30.30 in 6.2 mi ESE 1.2 mph - N/A   Unknown
2:00 AM 41.0 °F 39.0 °F 41.0 °F 100% 30.30 in 6.2 mi NNE 3.5 mph - N/A   Scattered Clouds
2:30 AM 41.0 °F 38.0 °F 41.0 °F 100% 30.30 in 6.2 mi WNW 4.6 mph - N/A   Unknown
3:00 AM 40 °F - 40 °F 98% 30.32 in - WNW 5.8 mph - -  
3:00 AM 41.0 °F 37.1 °F 39.2 °F 93% 30.30 in 6.2 mi WNW 5.8 mph - N/A   Scattered Clouds
3:30 AM 42.8 °F 38.0 °F 42.8 °F 100% 30.30 in 6.2 mi WNW 8.1 mph - N/A   Unknown
4:03 AM 44.6 °F 40.2 °F 42.8 °F 93% 30.30 in 6.2 mi West 8.1 mph - N/A   Mostly Cloudy
4:30 AM 46.4 °F 43.5 °F 46.4 °F 100% 30.30 in 6.2 mi WNW 5.8 mph - N/A   Overcast
5:00 AM 46.4 °F 42.9 °F 44.6 °F 93% 30.30 in 6.2 mi NNW 6.9 mph - N/A   Mostly Cloudy
5:10 AM 44.6 °F 40.2 °F 44.6 °F 100% 30.30 in 6.2 mi NNW 8.1 mph - N/A   Scattered Clouds
5:30 AM 44.6 °F 40.7 °F 42.8 °F 93% 30.30 in 6.2 mi NNW 6.9 mph - N/A   Unknown
6:00 AM 40 °F - 39 °F 96% 30.32 in 4 mi SSE 3.5 mph - -  
6:01 AM 41.0 °F 39.0 °F 39.2 °F 93% 30.30 in 3.7 mi SSE 3.5 mph - N/A   Unknown
6:16 AM 42.8 °F - 42.8 °F 100% 30.30 in 5.6 mi SSW 2.3 mph - N/A   Unknown
6:17 AM 42.8 °F - 42.8 °F 100% 30.30 in 3.7 mi SSW 2.3 mph - N/A   Unknown
6:30 AM 44.6 °F 39.2 °F 44.6 °F 100% 30.30 in 6.2 mi WSW 10.4 mph - N/A   Scattered Clouds
7:00 AM 42.8 °F 38.0 °F 42.8 °F 100% 30.30 in 6.2 mi WNW 8.1 mph - N/A   Unknown
7:30 AM 44.6 °F 41.4 °F 44.6 °F 100% 30.30 in 6.2 mi WNW 5.8 mph - N/A   Unknown
8:00 AM 44.6 °F 40.2 °F 44.6 °F 100% 30.33 in 6.2 mi West 8.1 mph - N/A   Scattered Clouds
8:30 AM 44.6 °F 41.4 °F 44.6 °F 100% 30.33 in 6.2 mi WNW 5.8 mph - N/A   Unknown
9:00 AM 46 °F - 46 °F 100% 30.33 in - North 1.2 mph - -  
9:00 AM 46.4 °F - 46.4 °F 100% 30.33 in 6.2 mi North 1.2 mph - N/A   Unknown
9:30 AM 48.2 °F - 48.2 °F 100% 30.33 in 6.2 mi Calm Calm - N/A   Unknown
10:00 AM 50.0 °F - 50.0 °F 100% 30.33 in 6.2 mi NNW 2.3 mph - N/A   Scattered Clouds
10:30 AM 51.8 °F - 51.8 °F 100% 30.33 in 6.2 mi North 4.6 mph - N/A   Mostly Cloudy
11:00 AM 53.6 °F - 51.8 °F 94% 30.30 in 6.2 mi SW 1.2 mph - N/A   Unknown
11:30 AM 57.2 °F - 53.6 °F 88% 30.30 in 6.2 mi WSW 6.9 mph - N/A   Unknown
12:00 PM 60 °F - 52 °F 69% 30.30 in - West 6.9 mph - -  
12:00 PM 60.8 °F - 51.8 °F 72% 30.30 in 6.2 mi West 6.9 mph - N/A   Scattered Clouds
12:30 PM 59.0 °F - 51.8 °F 77% 30.27 in 6.2 mi SSW 5.8 mph - N/A   Mostly Cloudy
1:00 PM 62.6 °F - 51.8 °F 68% 30.27 in 6.2 mi WNW 16.1 mph - N/A   Mostly Cloudy
1:30 PM 62.6 °F - 50.0 °F 63% 30.24 in 6.2 mi West 16.1 mph - N/A   Scattered Clouds
2:00 PM 64.4 °F - 50.0 °F 59% 30.24 in 6.2 mi WNW 16.1 mph - N/A   Scattered Clouds
2:30 PM 62.6 °F - 50.0 °F 63% 30.21 in 6.2 mi West 15.0 mph - N/A   Mostly Cloudy
3:00 PM 63 °F - 50 °F 53% 30.23 in - NW 12.7 mph - -  
3:00 PM 62.6 °F - 50.0 °F 63% 30.21 in 6.2 mi NW 12.7 mph - N/A   Unknown
3:30 PM 62.6 °F - 50.0 °F 63% 30.21 in 6.2 mi West 13.8 mph - N/A   Mostly Cloudy
4:00 PM 60.8 °F - 50.0 °F 68% 30.21 in 6.2 mi NW 13.8 mph - N/A   Scattered Clouds
4:30 PM 60.8 °F - 50.0 °F 68% 30.21 in 6.2 mi WNW 13.8 mph - N/A   Mostly Cloudy
5:00 PM 59.0 °F - 50.0 °F 72% 30.24 in 6.2 mi WNW 12.7 mph - N/A   Overcast
5:30 PM 59.0 °F - 51.8 °F 77% 30.24 in 6.2 mi West 11.5 mph - N/A   Overcast
6:00 PM 55 °F - 52 °F 88% 30.25 in - West 5.8 mph - -   Overcast
6:00 PM 55.4 °F - 51.8 °F 88% 30.24 in 6.2 mi West 5.8 mph - N/A   Overcast
6:30 PM 53.6 °F - 51.8 °F 94% 30.24 in 6.2 mi NW 4.6 mph - N/A   Overcast
7:00 PM 55.4 °F - 53.6 °F 94% 30.24 in 6.2 mi NNW 9.2 mph - N/A   Overcast
7:30 PM 55.4 °F - 51.8 °F 88% 30.24 in 6.2 mi NW 11.5 mph - N/A   Overcast
8:00 PM 53.6 °F - 50.0 °F 88% 30.24 in 6.2 mi NNW 8.1 mph - N/A   Mostly Cloudy
8:30 PM 55.4 °F - 51.8 °F 88% 30.24 in 6.2 mi NNW 8.1 mph - N/A   Overcast
9:00 PM 55 °F - 51 °F 83% 30.23 in - NNW 11.5 mph - -   Overcast
9:00 PM 55.4 °F - 51.8 °F 88% 30.21 in 6.2 mi NNW 11.5 mph - N/A   Overcast
9:30 PM 55.4 °F - 50.0 °F 82% 30.21 in 6.2 mi NW 12.7 mph - N/A   Overcast
10:00 PM 55.4 °F - 50.0 °F 82% 30.21 in 6.2 mi NNW 10.4 mph - N/A   Mostly Cloudy
10:30 PM 55.4 °F - 50.0 °F 82% 30.21 in 6.2 mi NW 11.5 mph - N/A   Overcast
11:00 PM 55.4 °F - 50.0 °F 82% 30.21 in 6.2 mi NW 13.8 mph - N/A   Overcast
11:30 PM 55.4 °F - 50.0 °F 82% 30.21 in 6.2 mi NW 11.5 mph - N/A   Overcast